OBJECT M, 44890

Orbit data source: Space-Track

You're viewing an Uncataloged Satellite

Recently launched and/or uncataloged satellites may have evolving metadata. Metadata may include but not limited to: Owner, Maufacturer, Bus, Motor, and Mission.

OBJECT M, 44890 is a satellite in SSO that was launched on Fri, 20 Dec 2019 UTC launched from the Taiyaun Space Center, China (TSC). Unknown objects in Earth's orbit typically refer to objects detected orbiting the Earth but have not yet been identified or cataloged. These objects could be anything from previously untracked satellites, spent rocket stages, debris from satellite collisions, or even natural meteoroids temporarily captured by Earth's gravity.

Loading next visibility...
Identifier
44890, 2019-093M
Orbit
SSO
Country
Flag of TBDTBD
Related business
Manufacturer
SAST
Mission
Spacecraft
Bus & Motor
Unknown
Mass
Unknown
Launch date (UTC)
2019-12-20 (6 years ago)
Launch vehicle
Unknown
Launch site
Taiyaun Space Center, China (TSC)
Object type
Unknown
Shape & HBR
Unknown shape, 0.1 m
Radar Cross Section
Medium (>0.1 m² and <1 m²)

Expand to show TLE details & history
Last TLE update: 6 days ago

TLE from 6 days ago
0 OBJECT M
1 44890U 19093M   26155.10030471  .00016618  00000-0  66307-3 0  9999
2 44890  97.7674 261.3304 0020278   2.0916 358.0402 15.25064808352295
Epoch: 2026-06-04T02:24Z
TLE epoch observation values (Epoch: 2026-06-04T02:24:26.326Z)
Latitude
-0.00005°
Longitude
-27.3287°
Altitude
479.754 km
Speed
7.633 km/s
True Right ascension
17h 25m 19s
True Declination
0° 00' 00"
Sunlit
Object was in full shadow at epoch
Visualization orbit readout
Latitude
Unknown
Longitude
Unknown
Altitude
Unknown
Speed
Unknown
Apparent Right ascension
Unknown
Apparent Declination
Unknown
Sunlit
N/A
Visualization observer readout
Local Sidereal Time
00:36:52
Azimuth
Unknown
Elevation
Unknown
Doppler factor
Unknown
Orbital elements
Apogee altitude
501.488 km
Perigee altitude
473.643 km
Semi-major axis
6,865.703 km
Eccentricity
0.00203
Inclination
97.7674°
RAAN
261.3304°
Arg. of periapsis
2.0916°
True anomaly
358.03223°
Mean anomaly
358.0402°
Eccentric anomaly
358.03622°
Mean motion
3.81519 °/min
Orbital period
94.36 mins
BSTAR
0.00066307
Loading maneuver chart data...
Computing Atmospheric mass density...
Loading historical data...
Loading historical data...
Loading historical data...
Loading historical data...
Loading historical data...
Loading historical data...
Loading historical data...

Documentation

Showing up to 5 results
|